sat.trackr.live / text

‹ back to catalog

STARLINK-36845

NORAD 68056 · 2026-041S

PAYLOAD ACTIVE UNKNOWN

§ Identity

Operator
Country
US
Launch date
2026-03-02
Launch site
AFETR
Launch vehicle
Mass (kg)
RCS (m²)

Purposes: comms

External: N2YO · Heavens-Above · Gunter

§ Orbital elements

Epoch: 2026-05-25T03:06:16.723008Z

Period
93.85 min
Inclination
53.1593°
Eccentricity
0.0001161
Mean motion
15.34400284 rev/d
Perigee alt
461.9 km
Apogee alt
463.5 km
Semi-major
6,840.8 km
B*
3.9114e-4
RAAN
53.2497°
Arg perigee
84.3093°
Mean anomaly
275.8042°
Rev number
1,311

§ Raw data

STARLINK-368451 68056U 26041S   26145.12936022  .00012862  00000+0  39114-3 0  99902 68056  53.1593  53.2497 0001161  84.3093 275.8042 15.34400284 13114

JSON: /api/v1/satellites/68056 · /tle

For live sub-satellite position, see the globe view (requires WebGL).

§ Visibility from observer

Set your observer location to see the next 7 days of passes ≥ 10°. The values pass through the URL so the page stays shareable.

No JS? Fill the form by hand. The geolocation button needs JavaScript.